User: anonymous
Location: Innerarity Island Observatory
(30.3139°N, 87.4867°W)
Time: 08:09:36
(UTC-05:00)
Language:

OPAL - Orbit

View from above orbital plane
View from above orbital plane
View from above satellite
View from above satellite

Ground track
Ground track

The orbit data is extracted from the following two-line orbital elements,

1 26063U 00004C   14210.37173765  .00000075  00000-0  45597-4 0   209
2 26063 100.2180 004.1950 0036904 040.2480 320.1422 14.36381225760080
Epoch (UTC): 29 July 2014 08:55:18
Eccentricity: 0.0036904
inclination: 100.2180°
perigee height: 744 km
apogee height: 797 km
right ascension of ascending node: 4.1950°
argument of perigee: 40.2480°
revolutions per day: 14.36381225
mean anomaly at epoch: 320.1422°
orbit number at epoch: 76008

The dashed part of the orbit path shows where the satellite is in the earth's shadow,  

DLR